TimeCST,TemperatureF,Dew PointF,Humidity,Sea Level PressureIn,VisibilityMPH,Wind Direction,Wind SpeedMPH,Gust SpeedMPH,PrecipitationIn,Events,Conditions,WindDirDegrees,DateUTC
12:08 AM,30.2,28.4,93,29.86,6.0,SSE,6.9,-,N/A,,Mostly Cloudy,160,2012-12-09 06:08:00
12:29 AM,33.8,30.2,87,29.86,6.0,South,6.9,-,N/A,,Overcast,170,2012-12-09 06:29:00
12:54 AM,33.1,30.9,92,29.89,5.0,South,4.6,-,N/A,,Overcast,180,2012-12-09 06:54:00
1:54 AM,35.1,30.9,85,29.90,6.0,SSE,3.5,-,N/A,,Overcast,150,2012-12-09 07:54:00
2:12 AM,33.8,30.2,87,29.86,5.0,SSE,8.1,-,N/A,,Overcast,150,2012-12-09 08:12:00
2:32 AM,35.6,32.0,87,29.87,5.0,Calm,Calm,-,N/A,,Overcast,0,2012-12-09 08:32:00
2:54 AM,35.1,30.9,85,29.88,6.0,SSE,3.5,-,N/A,,Overcast,150,2012-12-09 08:54:00
3:54 AM,36.0,33.1,89,29.87,5.0,Calm,Calm,-,N/A,,Overcast,0,2012-12-09 09:54:00
4:54 AM,36.0,33.1,89,29.88,5.0,West,4.6,-,N/A,,Overcast,270,2012-12-09 10:54:00
5:54 AM,37.0,27.0,67,29.91,10.0,NW,13.8,-,N/A,,Overcast,310,2012-12-09 11:54:00
6:54 AM,35.1,25.0,67,29.94,10.0,NW,16.1,21.9,N/A,,Overcast,310,2012-12-09 12:54:00
7:01 AM,35.6,24.8,65,29.92,10.0,NW,18.4,24.2,N/A,,Overcast,310,2012-12-09 13:01:00
7:52 AM,28.4,17.6,64,29.95,10.0,NW,19.6,26.5,N/A,,Scattered Clouds,310,2012-12-09 13:52:00
7:54 AM,28.9,18.0,64,29.99,10.0,NW,19.6,-,N/A,,Scattered Clouds,310,2012-12-09 13:54:00
8:54 AM,25.0,12.9,60,30.02,10.0,NW,24.2,33.4,N/A,,Clear,310,2012-12-09 14:54:00
9:54 AM,25.0,10.0,53,30.05,10.0,NW,19.6,27.6,N/A,,Clear,320,2012-12-09 15:54:00
10:54 AM,24.1,9.0,53,30.06,10.0,NW,18.4,-,N/A,,Clear,310,2012-12-09 16:54:00
11:54 AM,25.0,9.0,51,30.06,10.0,NW,19.6,28.8,N/A,,Clear,310,2012-12-09 17:54:00
12:54 PM,25.0,9.0,51,30.06,10.0,NW,24.2,33.4,N/A,,Scattered Clouds,310,2012-12-09 18:54:00
1:15 PM,26.6,8.6,47,30.02,10.0,NW,23.0,31.1,N/A,,Overcast,310,2012-12-09 19:15:00
1:54 PM,24.1,8.1,51,30.06,10.0,NW,21.9,29.9,N/A,,Overcast,310,2012-12-09 19:54:00
2:54 PM,23.0,7.0,50,30.09,10.0,NW,19.6,33.4,N/A,,Overcast,320,2012-12-09 20:54:00
3:30 PM,21.2,6.8,54,30.06,10.0,NW,23.0,31.1,N/A,,Overcast,310,2012-12-09 21:30:00
3:54 PM,21.0,6.1,53,30.12,10.0,NW,20.7,32.2,N/A,,Overcast,320,2012-12-09 21:54:00
4:33 PM,19.4,6.8,58,30.09,10.0,NW,24.2,31.1,N/A,,Overcast,320,2012-12-09 22:33:00
4:54 PM,19.9,6.1,55,30.15,10.0,NW,25.3,33.4,N/A,,Overcast,320,2012-12-09 22:54:00
5:54 PM,19.0,6.1,57,30.17,10.0,NNW,19.6,28.8,N/A,,Overcast,330,2012-12-09 23:54:00
6:54 PM,19.0,7.0,59,30.19,10.0,NNW,18.4,27.6,N/A,,Overcast,330,2012-12-10 00:54:00
7:52 PM,17.6,6.8,63,30.15,10.0,NW,24.2,29.9,N/A,,Overcast,320,2012-12-10 01:52:00
7:54 PM,18.0,7.0,62,30.21,10.0,NW,23.0,31.1,N/A,,Overcast,320,2012-12-10 01:54:00
8:05 PM,17.6,6.8,63,30.15,10.0,NNW,19.6,36.8,N/A,,Overcast,330,2012-12-10 02:05:00
8:54 PM,17.1,6.1,62,30.20,10.0,NNW,26.5,38.0,N/A,,Overcast,330,2012-12-10 02:54:00
9:54 PM,17.1,3.9,56,30.21,10.0,NNW,21.9,33.4,N/A,,Overcast,340,2012-12-10 03:54:00
10:54 PM,17.1,3.0,54,30.21,10.0,NNW,25.3,32.2,N/A,,Overcast,330,2012-12-10 04:54:00
11:54 PM,15.1,1.9,56,30.21,10.0,NNW,18.4,28.8,N/A,,Overcast,330,2012-12-10 05:54:00